Total_Precipitation_Accumulation
0.05 0.01 0.02 0.05 0.05 0.06 0.05 0.05 0.04 0.04 0.04 0.05 0.08 0.09 0.08 0.08 0.10 0.16 0.19 0.19 0.24 0.24 0.23 0.28 0.31 0.35 0.44 0.53 0.59 0.68 0.79 0.90 0.95 0.82 0.63 0.54 0.48 0.44 0.47 0.42 0.39 0.37 0.37
0.03 0.01 0.02 0.05 0.05 0.05 0.05 0.05 0.05 0.04 0.05 0.06 0.07 0.06 0.05 0.04 0.04 0.06 0.10 0.14 0.17 0.18 0.19 0.20 0.17 0.16 0.20 0.24 0.26 0.32 0.43 0.53 0.65 0.73 0.67 0.63 0.58 0.52 0.47 0.39 0.33 0.30 0.29
0.04 0.04 0.04 0.04 0.04 0.06 0.07 0.07 0.07 0.07 0.08 0.07 0.05 0.05 0.06 0.05 0.05 0.04 0.06 0.11 0.13 0.16 0.17 0.18 0.18 0.18 0.21 0.25 0.28 0.33 0.40 0.47 0.54 0.61 0.61 0.55 0.49 0.44 0.37 0.26 0.24 0.21 0.18
0.11 0.08 0.06 0.08 0.07 0.07 0.06 0.06 0.06 0.07 0.07 0.06 0.08 0.08 0.07 0.06 0.08 0.11 0.14 0.16 0.16 0.17 0.18 0.20 0.20 0.20 0.22 0.26 0.31 0.38 0.40 0.37 0.34 0.32 0.36 0.31 0.25 0.20 0.16 0.12 0.09 0.06 0.03
0.16 0.13 0.09 0.08 0.09 0.07 0.05 0.07 0.07 0.06 0.06 0.04 0.08 0.15 0.17 0.17 0.16 0.13 0.11 0.12 0.15 0.19 0.21 0.23 0.26 0.32 0.39 0.37 0.32 0.30 0.30 0.32 0.36 0.37 0.26 0.21 0.12 0.05 0.04 0.03 0.03 0.03 0.01
0.11 0.11 0.08 0.08 0.08 0.09 0.08 0.05 0.08 0.08 0.08 0.12 0.11 0.11 0.14 0.18 0.35 0.27 0.18 0.15 0.17 0.21 0.26 0.33 0.41 0.49 0.45 0.41 0.33 0.26 0.21 0.27 0.27 0.24 0.19 0.07 0.02 0.01 0.01 0.03 0.06 0.06 0.06
0.15 0.17 0.17 0.13 0.20 0.20 0.15 0.13 0.11 0.15 0.24 0.23 0.22 0.26 0.25 0.23 0.32 0.27 0.33 0.36 0.42 0.47 0.48 0.44 0.36 0.33 0.31 0.26 0.22 0.22 0.24 0.18 0.12 0.07 0.02 0.00 0.01 0.03 0.10 0.10 0.08 0.11 0.06
0.22 0.33 0.57 0.48 0.52 0.60 0.75 0.63 0.64 0.52 0.46 0.54 0.56 0.58 0.64 0.76 0.78 0.67 0.53 0.44 0.45 0.47 0.44 0.39 0.32 0.26 0.18 0.13 0.16 0.19 0.08 0.02 0.00 0.00 0.00 0.01 0.04 0.04 0.07 0.17 0.10 0.07 0.02
0.63 0.81 0.80 0.70 0.74 0.84 1.06 1.14 0.80 0.97 0.78 0.78 0.68 0.55 0.59 0.70 0.65 0.49 0.44 0.39 0.29 0.19 0.14 0.07 0.03 0.03 0.03 0.06 0.08 0.04 0.00 0.00 0.00 0.01 0.02 0.02 0.01 0.01 0.00 0.06 0.07 0.07 0.05
0.79 0.81 0.88 0.75 0.73 0.89 0.99 0.98 0.72 0.61 0.65 0.58 0.63 0.60 0.50 0.43 0.31 0.19 0.10 0.08 0.05 0.02 0.00 0.00 0.00 0.01 0.04 0.08 0.03 0.00 0.00 0.00 0.05 0.02 0.00 0.00 0.00 0.00 0.00 0.01 0.07 0.25 0.14
0.86 0.88 0.70 0.73 0.45 0.61 0.69 0.62 0.47 0.37 0.42 0.43 0.39 0.32 0.22 0.13 0.06 0.02 0.01 0.01 0.00 0.00 0.00 0.00 0.00 0.02 0.04 0.03 0.02 0.00 0.01 0.02 0.02 0.00 0.00 0.00 0.00 0.00 0.00 0.00 0.02 0.21 0.40
0.44 0.46 0.31 0.26 0.23 0.18 0.19 0.27 0.24 0.14 0.10 0.04 0.01 0.00 0.00 0.00 0.00 0.00 0.00 0.00 0.01 0.01 0.01 0.00 0.01 0.03 0.02 0.00 0.00 0.01 0.02 0.01 0.00 0.00 0.00 0.00 0.00 0.00 0.00 0.00 0.00 0.02 0.10
0.02 0.01 0.01 0.01 0.01 0.00 0.00 0.00 0.00 0.00 0.00 0.00 0.00 0.00 0.00 0.00 0.00 0.00 0.00 0.00 0.01 0.02 0.01 0.01 0.01 0.00 0.00 0.00 0.00 0.00 0.00 0.00 0.00 0.01 0.01 0.00 0.00 0.00 0.00 0.00 0.00 0.00 0.01
0.00 0.00 0.00 0.00 0.00 0.00 0.00 0.00 0.00 0.00 0.00 0.00 0.00 0.00 0.00 0.00 0.00 0.00 0.00 0.00 0.01 0.01 0.00 0.00 0.00 0.00 0.00 0.00 0.00 0.00 0.00 0.00 0.01 0.03 0.01 0.00 0.00 0.00 0.00 0.00 0.03 0.01 0.06
0.00 0.00 0.00 0.00 0.00 0.00 0.00 0.00 0.00 0.00 0.00 0.00 0.00 0.00 0.00 0.00 0.00 0.00 0.01 0.02 0.01 0.01 0.01 0.00 0.00 0.00 0.00 0.00 0.00 0.00 0.00 0.00 0.01 0.01 0.02 0.02 0.01 0.00 0.00 0.00 0.04 0.09 0.12
0.00 0.00 0.00 0.00 0.00 0.00 0.00 0.00 0.00 0.00 0.00 0.00 0.00 0.00 0.00 0.00 0.00 0.00 0.01 0.01 0.01 0.01 0.00 0.00 0.00 0.00 0.00 0.00 0.00 0.00 0.00 0.00 0.01 0.02 0.03 0.04 0.07 0.05 0.06 0.03 0.03 0.09 0.12
0.00 0.00 0.00 0.00 0.00 0.00 0.00 0.00 0.00 0.00 0.00 0.00 0.00 0.00 0.00 0.00 0.00 0.01 0.01 0.00 0.00 0.00 0.00 0.00 0.00 0.00 0.00 0.00 0.01 0.02 0.01 0.00 0.02 0.04 0.05 0.07 0.14 0.10 0.05 0.05 0.04 0.06 0.05
0.00 0.00 0.00 0.00 0.00 0.00 0.00 0.00 0.00 0.00 0.00 0.00 0.00 0.00 0.00 0.00 0.00 0.01 0.00 0.00 0.00 0.00 0.00 0.00 0.00 0.00 0.00 0.01 0.02 0.03 0.03 0.01 0.02 0.03 0.09 0.13 0.15 0.18 0.10 0.09 0.08 0.15 0.18
0.01 0.00 0.00 0.00 0.00 0.00 0.00 0.00 0.00 0.00 0.00 0.00 0.00 0.00 0.00 0.00 0.00 0.00 0.00 0.00 0.00 0.00 0.00 0.00 0.00 0.00 0.01 0.02 0.03 0.04 0.04 0.06 0.09 0.13 0.10 0.13 0.14 0.26 0.15 0.07 0.09 0.09 0.14
0.00 0.02 0.01 0.00 0.00 0.00 0.00 0.00 0.00 0.00 0.00 0.00 0.00 0.00 0.00 0.00 0.00 0.00 0.00 0.00 0.00 0.00 0.00 0.00 0.00 0.00 0.01 0.03 0.04 0.04 0.04 0.02 0.05 0.06 0.09 0.14 0.15 0.21 0.27 0.19 0.13 0.19 0.11
0.04 0.07 0.10 0.04 0.01 0.00 0.00 0.00 0.00 0.00 0.00 0.00 0.00 0.00 0.00 0.00 0.00 0.00 0.00 0.00 0.00 0.00 0.00 0.00 0.00 0.01 0.02 0.03 0.05 0.05 0.04 0.03 0.07 0.13 0.12 0.14 0.19 0.24 0.14 0.17 0.17 0.17 0.19
0.02 0.04 0.05 0.03 0.04 0.04 0.03 0.03 0.02 0.01 0.00 0.00 0.00 0.00 0.00 0.00 0.00 0.00 0.00 0.00 0.00 0.00 0.00 0.01 0.01 0.02 0.07 0.13 0.15 0.11 0.04 0.04 0.06 0.13 0.11 0.13 0.17 0.15 0.14 0.17 0.20 0.27 0.22
0.01 0.01 0.02 0.02 0.03 0.06 0.09 0.05 0.03 0.02 0.00 0.00 0.00 0.00 0.00 0.00 0.00 0.00 0.00 0.00 0.00 0.00 0.00 0.01 0.03 0.02 0.02 0.10 0.18 0.27 0.24 0.13 0.17 0.24 0.26 0.16 0.15 0.23 0.36 0.42 0.36 0.26 0.12
0.01 0.03 0.04 0.05 0.05 0.07 0.07 0.07 0.06 0.03 0.01 0.00 0.00 0.00 0.00 0.00 0.00 0.00 0.00 0.00 0.00 0.00 0.00 0.01 0.03 0.07 0.08 0.07 0.09 0.14 0.26 0.31 0.38 0.41 0.63 0.81 0.62 0.42 0.36 0.29 0.22 0.16 0.12
0.06 0.09 0.11 0.11 0.11 0.11 0.07 0.06 0.03 0.02 0.01 0.01 0.01 0.00 0.00 0.00 0.00 0.00 0.00 0.00 0.00 0.00 0.00 0.01 0.04 0.09 0.09 0.11 0.11 0.13 0.17 0.26 0.51 0.59 0.56 0.50 0.37 0.24 0.25 0.23 0.18 0.15 0.10
0.15 0.16 0.17 0.16 0.12 0.10 0.07 0.06 0.05 0.06 0.05 0.03 0.01 0.00 0.00 0.00 0.00 0.00 0.00 0.00 0.00 0.00 0.01 0.01 0.04 0.08 0.11 0.08 0.06 0.10 0.18 0.21 0.27 0.25 0.34 0.45 0.36 0.26 0.22 0.28 0.20 0.21 0.21